Location: Huisseau
(47.5933°N, 1.4533°E)
Time: 19:07:05
(UTC+00:00)

CENTAUR R/B - Pass Details

Date: 23 November 2025
Orbit: 633 x 1547 km, 63.4° (Epoch: 06 December)

Event Time Altitude Azimuth Distance (km) Brightness Sun altitude
Exits shadow 06:17:46 10° 281° (W) 3,609 4.8 -8.9°
Reaches altitude 10° 06:17:58 10° 280° (W) 3,590 4.8 -8.9°
Maximum altitude 06:21:06 12° 259° (W) 3,473 4.9 -8.4°
Drops below altitude 10° 06:24:20 10° 239° (WSW) 3,698 5.2 -7.9°
Sets 06:29:56 0° 213° (SSW) 4,701 5.9 -7.0°
